Change the Weather History Date:

Thursday, September 12, 2013

  Actual Average Record
Temperature  
Mean Temperature 84 °F -  
Max Temperature 95 °F - - ()
Min Temperature 72 °F - - ()
Cooling Degree Days 18    
Growing Degree Days 34 (Base 50)    
Moisture  
Dew Point 70 °F    
Average Humidity 62    
Maximum Humidity 94    
Minimum Humidity 32    
Precipitation  
Precipitation 0.12 in - - ()
Sea Level Pressure  
Sea Level Pressure 29.85 in    
Wind  
Wind Speed 4 mph ()    
Max Wind Speed 14 mph    
Max Gust Speed -    
Visibility 5.5 miles    
Events      
T = Trace of Precipitation, MM = Missing Value Source: Averaged Metar Reports

Daily Weather History Graph

Daily Weather History Graph

Search for Another Location

Airport or City:

Trip Planner

Search our weather history database for the weather conditions in past years. The results will help you decide how hot, cold, wet, or windy it might be!

Date:

Astronomy

Sep. 12, 2013 Rise Set
Actual Time 5:56 AM WITA 5:59 PM WITA
Civil Twilight 5:35 AM WITA 6:20 PM WITA
Nautical Twilight 5:11 AM WITA 6:44 PM WITA
Astronomical Twilight 4:47 AM WITA 7:09 PM WITA
Moon 11:13 AM WITA (9/12) 11:56 PM WITA (9/12)
Length of Visible Light 12h 45m
Length of Day
12h 03m
Waxing Crescent, 44% of the Moon is Illuminated
Sep 12
Waxing Crescent
Sep 13
First Quarter
Sep 19
Full
Sep 27
Last Quarter
Oct 5
New

Hourly Weather History & Observations

Time (WITA) Temp. Heat Index Dew Point Humidity Pressure Visibility Wind Dir Wind Speed Gust Speed Precip Events Conditions
12:00 AM 77.0 °F - 69.8 °F 78% 29.86 in 5.0 mi South 3.5 mph - N/A   Partly Cloudy
12:30 AM 77.0 °F - 69.8 °F 78% 29.86 in 5.0 mi South 3.5 mph - N/A   Partly Cloudy
1:00 AM 77.0 °F - 69.8 °F 78% 29.86 in 5.0 mi South 5.8 mph - N/A   Partly Cloudy
1:30 AM 77.0 °F - 69.8 °F 78% 29.86 in 5.0 mi South 3.5 mph - N/A   Partly Cloudy
2:00 AM 76 °F - 70 °F 76% 29.86 in 5 mi Calm Calm - -   Scattered Clouds
2:00 AM - - - N/A% - 5.0 mi Calm Calm - N/A   Partly Cloudy
2:30 AM 77.0 °F - 69.8 °F 78% 29.83 in 5.0 mi Calm Calm - N/A   Partly Cloudy
3:30 AM 77.0 °F - 69.8 °F 78% 29.83 in 5.0 mi Calm Calm - N/A   Partly Cloudy
4:00 AM - - - N/A% 29.83 in 5.0 mi Variable 1.2 mph - N/A   Partly Cloudy
4:30 AM - - - N/A% 29.83 in 5.0 mi Variable 1.2 mph - N/A   Partly Cloudy
5:00 AM 76 °F - 69 °F 73% 29.86 in 5 mi NE 2.3 mph - -   Scattered Clouds
5:00 AM - - - N/A% 29.86 in - NE 2.3 mph - N/A   Unknown
5:30 AM 75.2 °F - 69.8 °F 83% 29.86 in 5.0 mi NNE 1.2 mph - N/A   Partly Cloudy
6:00 AM 75.2 °F - 69.8 °F 83% 29.86 in 5.0 mi SSE 1.2 mph - N/A   Partly Cloudy
7:00 AM 75.2 °F - 73.4 °F 94% 29.89 in 6.2 mi Variable 2.3 mph - N/A   Partly Cloudy
7:30 AM 77.0 °F - 73.4 °F 89% 29.89 in 6.2 mi Variable 2.3 mph - N/A   Partly Cloudy
8:00 AM 81 °F - 73 °F 71% 29.91 in 6 mi South 2.3 mph - -   Scattered Clouds
8:00 AM 80.6 °F 85.4 °F 73.4 °F 79% 29.89 in 6.2 mi South 2.3 mph - N/A   Partly Cloudy
8:30 AM 86.0 °F 90.4 °F 69.8 °F 58% 29.89 in 6.2 mi SSE 4.6 mph - N/A   Partly Cloudy
9:00 AM 89.6 °F 93.4 °F 68.0 °F 49% 29.89 in 6.2 mi SSW 3.5 mph - N/A   Partly Cloudy
9:30 AM 91.4 °F 95.4 °F 68.0 °F 46% 29.89 in 6.2 mi Variable 3.5 mph - N/A   Partly Cloudy
10:00 AM 89.6 °F 96.2 °F 71.6 °F 55% 29.89 in 6.2 mi Variable 3.5 mph - N/A   Partly Cloudy
10:30 AM 91.4 °F 98.4 °F 71.6 °F 52% 29.89 in 6.2 mi SSE 4.6 mph - N/A   Partly Cloudy
11:00 AM 95 °F - 68 °F 32% 29.88 in 6 mi SSE 3.5 mph - -   Scattered Clouds
11:00 AM 95.0 °F 99.5 °F 68.0 °F 41% 29.86 in 6.2 mi Variable 3.5 mph - N/A   Partly Cloudy
11:30 AM 91.4 °F 100.1 °F 73.4 °F 55% 29.86 in 6.2 mi WNW 11.5 mph - N/A   Scattered Clouds
12:00 PM 87.8 °F 97.6 °F 75.2 °F 66% 29.86 in 6.2 mi WNW 13.8 mph - N/A   Scattered Clouds
12:30 PM 89.6 °F 98.2 °F 73.4 °F 59% 29.83 in 6.2 mi WNW 13.8 mph - N/A   Scattered Clouds
1:00 PM 91.4 °F 100.1 °F 73.4 °F 55% 29.83 in 6.2 mi West 13.8 mph - N/A   Partly Cloudy
1:30 PM 89.6 °F 98.2 °F 73.4 °F 59% 29.83 in 5.6 mi West 12.7 mph - N/A   Partly Cloudy
2:00 PM 90 °F - 72 °F 47% 29.82 in 6 mi West 11.5 mph - -   Scattered Clouds
2:00 PM 91.4 °F 98.4 °F 71.6 °F 52% 29.80 in 5.6 mi West 11.5 mph - N/A   Partly Cloudy
2:30 PM 91.4 °F 98.4 °F 71.6 °F 52% 29.80 in 5.6 mi WNW 9.2 mph - N/A   Partly Cloudy
3:00 PM 91.4 °F 98.4 °F 71.6 °F 52% 29.80 in 5.6 mi Variable 8.1 mph - N/A   Partly Cloudy
3:30 PM 91.4 °F 98.4 °F 71.6 °F 52% 29.80 in 5.6 mi NW 6.9 mph - N/A   Partly Cloudy
4:00 PM 91.4 °F 98.4 °F 71.6 °F 52% 29.77 in 5.6 mi WNW 6.9 mph - N/A   Partly Cloudy
4:30 PM 91.4 °F 98.4 °F 71.6 °F 52% 29.80 in 5.6 mi WNW 6.9 mph - N/A   Partly Cloudy
5:00 PM 90 °F - 71 °F 45% 29.81 in 6 mi NNW 5.8 mph - -   Scattered Clouds
5:00 PM 89.6 °F 96.2 °F 71.6 °F 55% 29.80 in 5.6 mi NNW 5.8 mph - N/A   Partly Cloudy
5:30 PM 89.6 °F 94.7 °F 69.8 °F 52% 29.80 in 5.6 mi WNW 5.8 mph - N/A   Partly Cloudy
6:00 PM 87.8 °F 93.8 °F 71.6 °F 58% 29.80 in 5.6 mi NNW 5.8 mph - N/A   Partly Cloudy
6:30 PM 87.8 °F 93.8 °F 71.6 °F 58% 29.83 in 5.6 mi NNW 6.9 mph - N/A   Partly Cloudy
7:00 PM 86.0 °F 91.8 °F 71.6 °F 62% 29.83 in 5.6 mi North 6.9 mph - N/A   Partly Cloudy
7:30 PM 84.2 °F 87.3 °F 68.0 °F 58% 29.83 in 5.0 mi ENE 5.8 mph - N/A   Partly Cloudy
8:00 PM 83 °F - 66 °F 48% 29.86 in 5 mi NE 6.9 mph - -   Scattered Clouds
8:00 PM 82.4 °F 84.6 °F 66.2 °F 58% 29.83 in 5.0 mi NE 6.9 mph - N/A   Partly Cloudy
8:30 PM 82.4 °F 83.9 °F 64.4 °F 54% 29.86 in 5.0 mi East 5.8 mph - N/A   Partly Cloudy
9:00 PM 80.6 °F 82.3 °F 64.4 °F 58% 29.86 in 5.0 mi NE 8.1 mph - N/A   Partly Cloudy
9:30 PM 80.6 °F 82.3 °F 64.4 °F 58% 29.86 in 5.0 mi East 3.5 mph - N/A   Partly Cloudy
10:00 PM 78.8 °F - 64.4 °F 61% 29.89 in 5.0 mi ESE 3.5 mph - N/A   Partly Cloudy
10:30 PM 77.0 °F - 64.4 °F 65% 29.89 in 5.0 mi SSW 3.5 mph - N/A   Partly Cloudy
11:00 PM 77 °F - 75 °F 91% 29.85 in 5 mi SSE 8.1 mph - -   Mostly Cloudy
11:00 PM 77.0 °F - 64.4 °F 65% 29.89 in 5.0 mi South 3.5 mph - N/A   Partly Cloudy
11:30 PM 77.0 °F - 64.4 °F 65% 29.89 in 5.0 mi South 4.6 mph - N/A   Partly Cloudy